Flag for Canada Weather past 2 weeks in Thunder Bay, Ontario, Canada

Now
50 °F

Clear.


Feels Like: 47 °F
Forecast: 48 / 66 °F
Wind: 7 mph from Southwest

Location: Thunder Bay

Current Time: Sep 23, 2014 at 5:33:27 AM

Latest Report: Sep 23, 2014 at 5:00 AM


Visibility: 15 mi

Pressure: 30.11 "Hg

Humidity: 94%

Dew point: 48 °F

Location of Thunder BayLocation

Historic Weather in Thunder Bay — Graph

°F

Thunder Bay temperature yesterday

Maximum temperature yesterday: 73 °F (at 3:00 PM)
Minimum temperature yesterday: 36 °F (at 1:00 AM)
Average temperature yesterday: 56 °F

Past Weeks' High & Low Weather Summary

 TemperatureHumidityPressure
High73 °F (Sep 8, 4:00 PM)100% (Sep 8, 4:00 AM)30.43 "Hg (Sep 8, 4:00 AM)
Low27 °F (Sep 18, 8:00 AM)41% (Sep 22, 4:00 PM)29.53 "Hg (Sep 20, 6:00 AM)
Average50 °F80%30.04 "Hg
* Reported Sep 8 4:00 AM — Sep 23 4:00 AM, Thunder Bay, Weather by CustomWeather, © 2014

Note: Actual official high and low records may vary slightly from our data, if they occured in-between our weather recording intervals... More about our weather records

Advertising

Thunder Bay weather history for previous 24 hours

 ConditionsComfort  
Time TempWeatherWind HumidityBarometerVisibility
4:00 AM
Sep 23
54 °FClear.8 mph88%30.10 "Hg15 mi
3:00 AM52 °FClear.5 mph88%30.09 "Hg15 mi
2:00 AM52 °FClear.5 mph88%30.08 "Hg15 mi
1:00 AM54 °FClear.5 mph88%30.06 "Hg15 mi
12:00 AM52 °FClear.6 mph88%30.05 "Hg15 mi
11:00 PM
Sep 22
55 °FClear.6 mph82%30.04 "Hg15 mi
10:00 PM59 °FClear.7 mph77%30.03 "Hg15 mi
9:00 PM61 °FClear.7 mph72%30.02 "Hg15 mi
8:00 PM64 °FPassing clouds.8 mph64%30.01 "Hg20 mi
7:00 PM72 °FPassing clouds.10 mph47%29.99 "Hg20 mi
6:00 PM73 °FPassing clouds.14 mph44%29.99 "Hg20 mi
5:00 PM73 °FPassing clouds.15 mph44%29.98 "Hg20 mi
4:00 PM73 °FPassing clouds.15 mph41%30.00 "Hg20 mi
3:00 PM73 °FSunny.13 mph44%30.01 "Hg20 mi
2:00 PM72 °FSunny.12 mph44%30.03 "Hg20 mi
1:00 PM70 °FSunny.10 mph53%30.05 "Hg20 mi
12:00 PM66 °FSunny.13 mph60%30.07 "Hg20 mi
11:00 AM61 °FPassing clouds.9 mph72%30.09 "Hg20 mi
10:00 AM57 °FPassing clouds.8 mph77%30.11 "Hg20 mi
9:00 AM52 °FScattered clouds.6 mph88%30.11 "Hg20 mi
8:00 AM48 °FPassing clouds.7 mph100%30.11 "Hg20 mi
7:00 AM43 °FPassing clouds.5 mph93%30.11 "Hg15 mi
6:00 AM41 °FPassing clouds.No wind100%30.10 "Hg15 mi
5:00 AM43 °FOvercast.2 mph93%30.10 "Hg15 mi
Weather by CustomWeather, © 2014

See weather overviewHow to use our weather pages